Location: Winter Haven
(28.0220°N, 81.7330°W)
Time: 22:57:12
(UTC-04:00)

Amateur Radio Satellites - All Passes

Search period start: 29 July 2014 22:27
Search period end: 30 July 2014 22:27
Location: Winter Haven, 28.0220°N, 81.7330°W

Satellite Date Start Highest point End Downlink Frequencies (MHz)
Time Altitude Azimuth
Oscar 11 29 Jul 22:54:10 22:58:22 53° 260° (W) 23:02:34 145.825 FM, Beacon 2401.500 USB
SO-50 29 Jul 23:07:24 23:11:57 43° 247° (WSW) 23:16:31 436.795 FM
HO-68 29 Jul 23:08:58 23:14:25 23° 263° (W) 23:19:53 435.675 MHz FM
FUNcube-1 29 Jul 23:17:49 23:22:12 87° 260° (W) 23:26:29 145.950 - 145.970 MHz USB
UOSAT-12 29 Jul 23:24:37 23:27:41 17° 54° (NE) 23:30:43 437.025 FM, 437.400 FM
ISS 29 Jul 23:38:46 23:41:41 28° 318° (NW) 23:44:37 145.800 FM
Sapphire 30 Jul 00:10:52 00:15:31 31° 107° (ESE) 00:20:12 437.095 MHz 1200 baud AX-25 AFSK
RS-15 30 Jul 00:15:55 00:27:01 74° 247° (WSW) 00:38:37 29.354 - 29.394 USB, Beacon 29.352 USB
PCSat 30 Jul 00:43:20 00:48:42 74° 112° (ESE) 00:54:06 145.825 MHz
UOSAT-12 30 Jul 01:03:35 01:07:57 39° 248° (WSW) 01:12:14 437.025 FM, 437.400 FM
Sapphire 30 Jul 01:54:25 01:58:51 26° 301° (WNW) 02:03:18 437.095 MHz 1200 baud AX-25 AFSK
AO-40 30 Jul 02:02:11 03:52:00 39° 218° (SW) 08:34:25 Beacon 2401.320
Oscar 19 30 Jul 02:22:48 02:27:27 33° 99° (E) 02:32:06 437.125 CW, 437.150 USB
PCSat 30 Jul 02:30:45 02:32:36 12° 306° (NW) 02:34:27 145.825 MHz
AO-Echo 30 Jul 02:32:45 02:35:51 17° 95° (E) 02:38:53 ?
RS-15 30 Jul 02:36:16 02:37:44 10° 260° (W) 02:39:12 29.354 - 29.394 USB, Beacon 29.352 USB
Oscar 16 30 Jul 02:50:56 02:56:06 73° 102° (ESE) 03:01:16 437.025 USB, Beacon 2401.1428
Oscar 10/S400 30 Jul 03:01:35 03:58:23 77° 206° (SSW) 13:41:33 145.825 - 145.975 CW/USB, Beacon 145.810 USB
ITAMSAT 1 30 Jul 03:14:07 03:19:06 49° 100° (E) 03:24:04 435.822 SSB
Uribyol 2 30 Jul 03:33:08 03:38:19 85° 103° (ESE) 03:43:28 436.500 FM
AO-27 30 Jul 03:33:28 03:38:39 82° 103° (ESE) 03:43:49 436.795 MHz FM
TMSAT-1 30 Jul 03:37:44 03:41:47 22° 96° (E) 03:45:48 436.925 FM
PANSAT 30 Jul 03:43:41 03:47:07 30° 159° (SSE) 03:50:33 not established
JAS-1B 30 Jul 03:50:10 03:59:02 66° 101° (E) 04:06:25 435.800 - 435.900 CW/SSB
Gurwin Techsat 1B 30 Jul 04:01:49 04:07:03 59° 101° (E) 04:12:16 435.225 FM
Oscar 19 30 Jul 04:02:43 04:06:31 21° 290° (WNW) 04:10:19 437.125 CW, 437.150 USB
AO-Echo 30 Jul 04:10:09 04:14:41 36° 287° (WNW) 04:19:05 ?
OPAL 30 Jul 04:23:13 04:27:54 45° 72° (ENE) 04:32:35 ?
Uosat F 30 Jul 04:31:12 04:33:36 13° 95° (E) 04:35:59 435.120 FM
ITAMSAT 1 30 Jul 04:55:24 04:58:07 15° 293° (WNW) 05:00:51 435.822 SSB
TMSAT-1 30 Jul 05:16:59 05:21:38 32° 288° (WNW) 05:26:16 436.925 FM
PANSAT 30 Jul 05:23:15 05:27:07 79° 170° (S) 05:31:00 not established
KITSAT 1 30 Jul 05:38:19 05:45:45 41° 108° (ESE) 05:53:11 435.175 FM
AO-7 30 Jul 05:41:36 05:49:54 70° 105° (ESE) 05:58:07 29.400 - 29.500 MHz
JAS-1B 30 Jul 05:42:08 05:48:29 22° 299° (WNW) 05:54:14 435.800 - 435.900 CW/SSB
Gurwin Techsat 1B 30 Jul 05:44:18 05:46:26 13° 294° (WNW) 05:48:35 435.225 FM
OPAL 30 Jul 06:04:24 06:06:53 14° 263° (W) 06:09:24 ?
Uosat F 30 Jul 06:07:44 06:12:31 46° 286° (WNW) 06:17:17 435.120 FM
ISS 30 Jul 06:14:05 06:15:21 12° 36° (NE) 06:16:37 145.800 FM
Saudisat 1A 30 Jul 06:37:02 06:40:04 18° 109° (ESE) 06:43:06 436.775 MHz
STRAND 1 30 Jul 06:48:41 06:52:58 27° 71° (ENE) 06:57:15 ?
MaSat-1 30 Jul 06:50:13 06:54:12 22° 60° (ENE) 06:57:56 437.345 MHz
PANSAT 30 Jul 07:03:28 07:07:21 84° 3° (N) 07:11:13 not established
KITSAT 1 30 Jul 07:33:53 07:41:04 35° 302° (WNW) 07:48:19 435.175 FM
AO-7 30 Jul 07:36:15 07:41:51 20° 299° (WNW) 07:47:26 29.400 - 29.500 MHz
Hamsat 30 Jul 07:44:20 07:48:29 48° 284° (WNW) 07:52:40 145.90 MHz
ISS 30 Jul 07:49:00 07:52:17 52° 230° (SW) 07:55:32 145.800 FM
JAS-2 30 Jul 07:55:45 08:01:22 70° 285° (WNW) 08:06:32 435.800 - 435.900 CW/SSB, 435.910 FM
Saudisat 1A 30 Jul 08:15:31 08:19:23 30° 302° (WNW) 08:23:16 436.775 MHz
MaSat-1 30 Jul 08:26:58 08:31:33 33° 256° (WSW) 08:35:45 437.345 MHz
STRAND 1 30 Jul 08:27:50 08:32:01 25° 263° (W) 08:36:13 ?
PANSAT 30 Jul 08:43:43 08:47:29 53° 196° (SSW) 08:51:15 not established
SO-67 30 Jul 08:54:40 08:57:55 37° 284° (WNW) 09:01:08 435.3500 MHz FM
HO-68 30 Jul 08:58:55 09:01:11 12° 94° (E) 09:03:27 435.675 MHz FM
PCSat 30 Jul 09:40:11 09:43:06 15° 55° (NE) 09:46:00 145.825 MHz
UKube-1 30 Jul 10:05:27 10:09:08 27° 98° (E) 10:12:49 145.840 MHz, 145.915 MHz
PANSAT 30 Jul 10:24:51 10:27:20 17° 206° (SSW) 10:29:50 not established
HO-68 30 Jul 10:42:13 10:49:23 84° 286° (WNW) 10:56:31 435.675 MHz FM
Sapphire 30 Jul 10:48:13 10:53:35 60° 65° (ENE) 10:58:54 437.095 MHz 1200 baud AX-25 AFSK
Oscar 11 30 Jul 10:48:40 10:52:51 46° 100° (E) 10:57:01 145.825 FM, Beacon 2401.500 USB
FUNcube-1 30 Jul 11:14:14 11:17:55 29° 98° (E) 11:21:39 145.950 - 145.970 MHz USB
PCSat 30 Jul 11:21:31 11:26:50 59° 249° (WSW) 11:32:08 145.825 MHz
SO-50 30 Jul 11:36:26 11:39:50 22° 110° (ESE) 11:43:16 436.795 FM
UKube-1 30 Jul 11:42:10 11:45:05 18° 290° (WNW) 11:48:01 145.840 MHz, 145.915 MHz
RS-15 30 Jul 12:20:11 12:29:35 31° 106° (ESE) 12:38:40 29.354 - 29.394 USB, Beacon 29.352 USB
Oscar 11 30 Jul 12:27:38 12:28:34 11° 292° (WNW) 12:29:31 145.825 FM, Beacon 2401.500 USB
HO-68 30 Jul 12:34:14 12:36:00 11° 300° (WNW) 12:37:47 435.675 MHz FM
Sapphire 30 Jul 12:34:22 12:36:24 12° 257° (WSW) 12:38:26 437.095 MHz 1200 baud AX-25 AFSK
FUNcube-1 30 Jul 12:51:35 12:54:02 15° 289° (WNW) 12:56:31 145.950 - 145.970 MHz USB
SO-50 30 Jul 13:16:31 13:20:12 25° 303° (WNW) 13:23:57 436.795 FM
UOSAT-12 30 Jul 13:28:54 13:32:25 22° 110° (ESE) 13:35:59 437.025 FM, 437.400 FM
Oscar 19 30 Jul 13:33:30 13:37:31 24° 70° (ENE) 13:41:33 437.125 CW, 437.150 USB
AO-Echo 30 Jul 13:40:02 13:42:04 12° 66° (ENE) 13:44:06 ?
Oscar 16 30 Jul 14:01:06 14:06:02 51° 74° (ENE) 14:10:59 437.025 USB, Beacon 2401.1428
JAS-1B 30 Jul 14:24:46 14:32:19 34° 65° (ENE) 14:40:36 435.800 - 435.900 CW/SSB
ITAMSAT 1 30 Jul 14:25:26 14:30:11 37° 72° (ENE) 14:34:56 435.822 SSB
RS-15 30 Jul 14:30:19 14:41:15 56° 300° (WNW) 14:51:57 29.354 - 29.394 USB, Beacon 29.352 USB
Uribyol 2 30 Jul 14:44:02 14:49:10 63° 75° (ENE) 14:54:18 436.500 FM
AO-27 30 Jul 14:44:37 14:49:45 61° 75° (ENE) 14:54:54 436.795 MHz FM
TMSAT-1 30 Jul 14:52:26 14:55:56 18° 69° (ENE) 14:59:26 436.925 FM
UOSAT-12 30 Jul 15:08:30 15:12:22 27° 303° (WNW) 15:16:18 437.025 FM, 437.400 FM
Oscar 19 30 Jul 15:12:19 15:16:40 28° 262° (W) 15:21:01 437.125 CW, 437.150 USB
AO-Echo 30 Jul 15:15:00 15:20:12 62° 259° (W) 15:25:29 ?
Gurwin Techsat 1B 30 Jul 15:16:04 15:21:07 47° 74° (ENE) 15:26:11 435.225 FM
KITSAT 1 30 Jul 15:34:11 15:41:31 37° 58° (ENE) 15:48:48 435.175 FM
Oscar 16 30 Jul 15:43:23 15:45:33 13° 266° (W) 15:47:44 437.025 USB, Beacon 2401.1428
ITAMSAT 1 30 Jul 16:06:04 16:09:40 19° 264° (W) 16:13:17 435.822 SSB
JAS-1B 30 Jul 16:14:05 16:22:13 50° 262° (W) 16:31:30 435.800 - 435.900 CW/SSB
AO-27 30 Jul 16:28:20 16:29:31 11° 266° (W) 16:30:42 436.795 MHz FM
Uribyol 2 30 Jul 16:28:21 16:28:54 10° 266° (W) 16:29:27 436.500 FM
TMSAT-1 30 Jul 16:30:31 16:35:28 41° 261° (W) 16:40:27 436.925 FM
AO-7 30 Jul 16:32:42 16:40:42 52° 69° (ENE) 16:48:42 29.400 - 29.500 MHz
OPAL 30 Jul 16:40:26 16:44:27 23° 99° (E) 16:48:29 ?
Saudisat 1A 30 Jul 16:48:34 16:52:26 29° 58° (ENE) 16:56:15 436.775 MHz
RS-15 30 Jul 16:53:09 16:56:33 12° 325° (NW) 16:59:56 29.354 - 29.394 USB, Beacon 29.352 USB
Gurwin Techsat 1B 30 Jul 16:58:15 17:01:12 15° 265° (W) 17:04:10 435.225 FM
Uosat F 30 Jul 17:13:43 17:18:44 72° 258° (WSW) 17:23:47 435.120 FM
KITSAT 1 30 Jul 17:29:31 17:36:46 38° 253° (WSW) 17:44:00 435.175 FM
JAS-2 30 Jul 17:58:52 18:05:11 28° 69° (ENE) 18:11:15 435.800 - 435.900 CW/SSB, 435.910 FM
OPAL 30 Jul 18:18:49 18:23:13 30° 290° (WNW) 18:27:41 ?
AO-7 30 Jul 18:26:52 18:33:34 27° 261° (W) 18:40:20 29.400 - 29.500 MHz
Saudisat 1A 30 Jul 18:28:44 18:31:45 18° 251° (WSW) 18:34:45 436.775 MHz
Hamsat 30 Jul 18:30:46 18:34:45 46° 76° (ENE) 18:38:45 145.90 MHz
STRAND 1 30 Jul 19:07:11 19:10:16 16° 95° (E) 19:13:21 ?
SO-67 30 Jul 19:21:39 19:24:14 20° 74° (ENE) 19:26:51 435.3500 MHz FM
JAS-2 30 Jul 19:42:15 19:49:47 49° 260° (W) 19:57:01 435.800 - 435.900 CW/SSB, 435.910 FM
MaSat-1 30 Jul 20:34:23 20:37:30 25° 102° (ESE) 20:41:03 437.345 MHz
STRAND 1 30 Jul 20:44:47 20:49:32 40° 287° (WNW) 20:54:15 ?
SO-67 30 Jul 20:55:24 20:57:12 14° 265° (W) 20:59:01 435.3500 MHz FM
UKube-1 30 Jul 20:57:18 20:58:02 10° 68° (ENE) 20:58:46 145.840 MHz, 145.915 MHz
HO-68 30 Jul 21:03:28 21:09:52 37° 68° (ENE) 21:16:15 435.675 MHz FM
RS-15 30 Jul 21:29:41 21:37:08 20° 44° (NE) 21:44:42 29.354 - 29.394 USB, Beacon 29.352 USB
Oscar 11 30 Jul 21:38:26 21:41:01 16° 70° (ENE) 21:43:35 145.825 FM, Beacon 2401.500 USB
SO-50 30 Jul 21:53:46 21:58:20 43° 60° (ENE) 22:02:55 436.795 FM
FUNcube-1 30 Jul 22:06:50 22:07:52 11° 69° (ENE) 22:08:54 145.950 - 145.970 MHz USB
MaSat-1 30 Jul 22:12:04 22:14:47 18° 302° (WNW) 22:17:47 437.345 MHz
